When you browse on this site, cookies collect data to enhance your experience and personalize the content and advertising you see.
Visit our Privacy Policy to learn more. By continuing to use the site, you agree to this use of cookies and data.

Hourly Weather Baranovichi

Today, 7 July, Tuesday

Time Temperature Precipitation Wind Pressure Humidity
00:00 +18°C° 0.1 mm 4 mps 739 mmHg 92%
01:00 +18°C° 0.1 mm 4 mps 739 mmHg 92%
02:00 +17°C° 0 mm 4 mps 739 mmHg 88%
03:00 +15°C° 0.4 mm 4 mps 740 mmHg 90%
04:00 +16°C° 0.4 mm 3 mps 740 mmHg 93%
05:00 +14°C° 0.4 mm 3 mps 740 mmHg 95%
06:00 +14°C° 0.8 mm 3 mps 740 mmHg 94%
07:00 +14°C° 0.8 mm 4 mps 741 mmHg 93%
08:00 +14°C° 0 mm 4 mps 741 mmHg 92%
09:00 +14°C° 0.4 mm 4 mps 742 mmHg 88%
10:00 +15°C° 0.4 mm 4 mps 742 mmHg 84%
11:00 +15°C° 0.4 mm 4 mps 742 mmHg 80%
12:00 +17°C° 0.1 mm 4 mps 742 mmHg 76%
13:00 +17°C° 0.1 mm 4 mps 742 mmHg 73%
14:00 +18°C° 0.1 mm 4 mps 743 mmHg 70%
15:00 +18°C° 0.1 mm 4 mps 742 mmHg 71%
16:00 +18°C° 0.1 mm 4 mps 742 mmHg 72%
17:00 +18°C° 0.1 mm 3 mps 742 mmHg 73%
18:00 +17°C° 0.2 mm 3 mps 742 mmHg 78%
19:00 +16°C° 0.2 mm 3 mps 742 mmHg 83%
20:00 +14°C° 0.2 mm 3 mps 742 mmHg 88%
21:00 +13°C° 0 mm 3 mps 742 mmHg 89%
22:00 +12°C° 0 mm 3 mps 743 mmHg 90%
23:00 +12°C° 0 mm 3 mps 743 mmHg 91%

Tomorrow, 8 July, Wednesday

Time Temperature Precipitation Wind Pressure Humidity
00:00 +11°C° 0 mm 3 mps 743 mmHg 92%
01:00 +10°C° 0 mm 3 mps 743 mmHg 93%
02:00 +9°C° 0 mm 3 mps 743 mmHg 94%
03:00 +9°C° 0 mm 3 mps 743 mmHg 95%
04:00 +9°C° 0 mm 3 mps 743 mmHg 95%
05:00 +8°C° 0 mm 3 mps 743 mmHg 96%
06:00 +10°C° 0 mm 3 mps 743 mmHg 90%
07:00 +12°C° 0 mm 3 mps 743 mmHg 84%
08:00 +14°C° 0 mm 3 mps 744 mmHg 78%
09:00 +15°C° 0 mm 4 mps 744 mmHg 73%
10:00 +17°C° 0 mm 4 mps 744 mmHg 67%
11:00 +18°C° 0 mm 4 mps 744 mmHg 62%
12:00 +19°C° 0 mm 4 mps 744 mmHg 61%
13:00 +19°C° 0 mm 4 mps 744 mmHg 59%
14:00 +20°C° 0 mm 4 mps 743 mmHg 58%
15:00 +19°C° 0.3 mm 4 mps 743 mmHg 64%
16:00 +18°C° 0.3 mm 4 mps 743 mmHg 71%
17:00 +17°C° 0.3 mm 4 mps 743 mmHg 77%
18:00 +16°C° 0.2 mm 3 mps 743 mmHg 81%
19:00 +14°C° 0.2 mm 3 mps 743 mmHg 85%
20:00 +14°C° 0.2 mm 2 mps 743 mmHg 88%
21:00 +14°C° 0 mm 2 mps 744 mmHg 90%
22:00 +13°C° 0 mm 2 mps 744 mmHg 92%
23:00 +11°C° 0 mm 3 mps 744 mmHg 93%

Day after tomorrow, 9 July, Thursday

Time Temperature Precipitation Wind Pressure Humidity
00:00 +11°C° 0.1 mm 3 mps 744 mmHg 94%
01:00 +11°C° 0.1 mm 3 mps 744 mmHg 94%
02:00 +11°C° 0.1 mm 3 mps 745 mmHg 94%
03:00 +11°C° 0.1 mm 3 mps 745 mmHg 95%
04:00 +11°C° 0.1 mm 3 mps 745 mmHg 96%
05:00 +10°C° 0.1 mm 3 mps 745 mmHg 97%
06:00 +11°C° 0 mm 3 mps 745 mmHg 93%
07:00 +13°C° 0 mm 3 mps 746 mmHg 90%
08:00 +14°C° 0 mm 3 mps 746 mmHg 86%
09:00 +16°C° 0.1 mm 3 mps 746 mmHg 80%
10:00 +17°C° 0.1 mm 3 mps 746 mmHg 74%
11:00 +18°C° 0.1 mm 3 mps 746 mmHg 68%
12:00 +19°C° 0.2 mm 4 mps 746 mmHg 67%
13:00 +19°C° 0.2 mm 4 mps 746 mmHg 66%
14:00 +20°C° 0.2 mm 4 mps 746 mmHg 65%
15:00 +20°C° 0.1 mm 4 mps 746 mmHg 65%
16:00 +20°C° 0.1 mm 3 mps 746 mmHg 66%
17:00 +20°C° 0.1 mm 3 mps 746 mmHg 66%
18:00 +18°C° 0.1 mm 2 mps 746 mmHg 72%
19:00 +17°C° 0.1 mm 2 mps 746 mmHg 78%
20:00 +16°C° 0.1 mm 1 mps 747 mmHg 84%
21:00 +15°C° 0 mm 1 mps 747 mmHg 86%
22:00 +14°C° 0 mm 1 mps 747 mmHg 88%
23:00 +13°C° 0 mm 1 mps 747 mmHg 90%

10 July, Friday

Time Temperature Precipitation Wind Pressure Humidity
00:00 +13°C° 0 mm 1 mps 747 mmHg 91%
01:00 +12°C° 0 mm 1 mps 747 mmHg 92%
02:00 +12°C° 0 mm 1 mps 747 mmHg 93%
03:00 +12°C° 0 mm 1 mps 747 mmHg 93%
04:00 +12°C° 0 mm 2 mps 747 mmHg 94%
05:00 +12°C° 0 mm 2 mps 747 mmHg 94%
06:00 +13°C° 0 mm 2 mps 747 mmHg 92%
07:00 +14°C° 0 mm 3 mps 747 mmHg 89%
08:00 +16°C° 0 mm 3 mps 747 mmHg 87%
09:00 +17°C° 0 mm 3 mps 747 mmHg 86%
10:00 +17°C° 0 mm 4 mps 747 mmHg 86%
11:00 +18°C° 0 mm 4 mps 747 mmHg 85%
12:00 +19°C° 0 mm 4 mps 747 mmHg 82%
13:00 +20°C° 0 mm 4 mps 746 mmHg 80%
14:00 +21°C° 0 mm 4 mps 746 mmHg 77%
15:00 +21°C° 0.2 mm 4 mps 746 mmHg 78%
16:00 +22°C° 0.2 mm 4 mps 745 mmHg 79%
17:00 +22°C° 0.2 mm 5 mps 745 mmHg 80%
18:00 +22°C° 0.1 mm 4 mps 745 mmHg 84%
19:00 +21°C° 0.1 mm 4 mps 744 mmHg 87%
20:00 +20°C° 0.1 mm 4 mps 744 mmHg 90%
21:00 +20°C° 0.5 mm 4 mps 744 mmHg 91%
22:00 +20°C° 0.5 mm 5 mps 744 mmHg 92%
23:00 +20°C° 0.5 mm 5 mps 743 mmHg 93%

11 July, Saturday

Time Temperature Precipitation Wind Pressure Humidity
00:00 +20°C° 0.7 mm 5 mps 743 mmHg 94%
01:00 +20°C° 0.7 mm 5 mps 743 mmHg 94%
02:00 +19°C° 0.7 mm 5 mps 743 mmHg 95%
03:00 +19°C° 0.3 mm 5 mps 743 mmHg 95%
04:00 +19°C° 0.3 mm 5 mps 743 mmHg 96%
05:00 +19°C° 0.3 mm 4 mps 743 mmHg 96%
06:00 +19°C° 0 mm 4 mps 744 mmHg 93%
07:00 +20°C° 0 mm 4 mps 744 mmHg 90%
08:00 +20°C° 0 mm 4 mps 745 mmHg 87%
09:00 +19°C° 0 mm 4 mps 745 mmHg 85%
10:00 +18°C° 0 mm 4 mps 746 mmHg 84%
11:00 +17°C° 0 mm 4 mps 746 mmHg 82%
12:00 +17°C° 0 mm 4 mps 747 mmHg 80%
13:00 +15°C° 0 mm 4 mps 747 mmHg 78%
14:00 +15°C° 0 mm 4 mps 747 mmHg 77%
15:00 +15°C° 0 mm 4 mps 747 mmHg 75%
16:00 +17°C° 0 mm 4 mps 748 mmHg 74%
17:00 +17°C° 0 mm 3 mps 748 mmHg 73%
18:00 +17°C° 0 mm 3 mps 748 mmHg 75%
19:00 +16°C° 0 mm 3 mps 748 mmHg 78%
20:00 +14°C° 0 mm 3 mps 748 mmHg 80%
21:00 +15°C° 0 mm 2 mps 749 mmHg 82%
22:00 +14°C° 0 mm 2 mps 749 mmHg 84%
23:00 +13°C° 0 mm 2 mps 749 mmHg 85%

12 July, Sunday

Time Temperature Precipitation Wind Pressure Humidity
00:00 +13°C° 0 mm 2 mps 749 mmHg 86%
01:00 +12°C° 0 mm 2 mps 749 mmHg 87%
02:00 +12°C° 0 mm 2 mps 749 mmHg 88%
03:00 +12°C° 0 mm 1 mps 749 mmHg 87%
04:00 +12°C° 0 mm 1 mps 749 mmHg 87%
05:00 +13°C° 0 mm 1 mps 749 mmHg 86%
06:00 +13°C° 0 mm 1 mps 750 mmHg 84%
07:00 +14°C° 0 mm 1 mps 750 mmHg 82%
08:00 +14°C° 0 mm 0 mps 750 mmHg 80%
09:00 +16°C° 0.1 mm 1 mps 750 mmHg 76%
10:00 +18°C° 0.1 mm 1 mps 750 mmHg 72%
11:00 +18°C° 0.1 mm 2 mps 750 mmHg 68%
12:00 +18°C° 0.1 mm 2 mps 750 mmHg 66%
13:00 +18°C° 0.1 mm 2 mps 750 mmHg 64%
14:00 +19°C° 0.1 mm 3 mps 750 mmHg 63%
15:00 +19°C° 0 mm 3 mps 749 mmHg 64%
16:00 +19°C° 0 mm 3 mps 749 mmHg 65%
17:00 +19°C° 0 mm 3 mps 749 mmHg 65%
18:00 +18°C° 0 mm 3 mps 749 mmHg 71%
19:00 +16°C° 0 mm 2 mps 749 mmHg 77%
20:00 +15°C° 0 mm 2 mps 749 mmHg 83%
21:00 +14°C° 0 mm 2 mps 749 mmHg 86%
22:00 +13°C° 0 mm 2 mps 749 mmHg 89%
23:00 +12°C° 0 mm 2 mps 749 mmHg 91%
Show more